[[{"header":{"parameterUnit":"m.s-1","parameterCategory":1,"la1":30.2991,"la2":30.254,"lo1":-89.0895,"lo2":-89.0444,"dy":0.0017,"dx":0.0017,"nx":28,"ny":28,"refTime":"2025-08-15T03:00:00:Z","depth":0,"parameterNumber":2,"parameterNumberName":"U-component_of_WINDS"},"data":[0,0,0,0,0,0,0,0,0,0,0,0,0,0,0,0,0,0,0,0,0,0,0,0,0,0,0,0,0,0,0,0,0,0,0,0,0,0,0,0,0,0,0,0,0,0,0,0,0,0,0,0,0,0,0,0,0,0,2.6213,2.6214,0,2.6263,2.6264,2.6264,2.6187,2.6184,2.6181,2.6179,2.6231,2.6235,2.6239,0,0,0,0,0,0,0,0,0,0,0,0,0,2.6052,2.6055,2.6213,2.6214,2.6214,2.6263,2.6264,2.6265,2.6187,2.6184,2.6181,2.6178,2.623,2.6234,2.6239,0,0,0,0,0,0,0,0,0,0,0,0,0,2.6114,2.6056,2.6213,2.6182,2.6179,2.6263,2.6264,2.6265,2.6188,2.6184,2.618,2.6176,2.6228,2.6234,2.624,2.6357,0,0,2.6258,2.626,0,0,0,0,0,0,0,0,2.611,2.612,2.6186,2.6184,2.6182,2.6215,2.6226,2.6296,2.6189,2.6185,2.6179,2.6174,2.6229,2.6235,2.6253,2.6359,2.6362,2.6258,2.6262,2.6264,2.6266,0,0,0,0,0,0,0,2.6106,2.6117,2.6233,2.6187,2.6184,2.6165,2.617,2.6239,2.6229,2.6185,2.6179,2.6186,2.6227,2.6247,2.6254,2.6362,2.6258,2.6263,2.6267,2.6269,2.6569,2.6573,0,0,0,0,0,0,2.6106,2.6114,2.6231,2.6234,2.6135,2.6172,2.6177,2.6208,2.6228,2.6227,2.619,2.6182,2.6239,2.6247,2.6255,2.6395,2.6264,2.627,2.6273,2.6564,2.657,2.6575,0,0,0,0,0,0,2.6102,2.6117,2.6229,2.6173,2.6186,2.6179,2.6215,2.6211,2.6231,2.6232,2.623,2.6212,2.6237,2.6247,2.6332,2.6395,2.6272,2.6278,2.6559,2.6566,2.6572,2.6674,0,0,0,0,0,0,2.6098,2.6116,2.616,2.6174,2.6189,2.6306,2.6219,2.6215,2.6242,2.6233,2.6252,2.6252,2.6234,2.6324,2.6338,2.6401,2.6282,2.6554,2.6562,2.657,2.6666,2.6684,2.67,0,0,0,0,0,2.6093,2.6187,2.6163,2.6177,2.6244,2.631,2.6318,2.6296,2.6247,2.6292,2.6292,2.6251,2.6386,2.6334,2.6349,2.6415,2.6549,2.656,2.6569,2.6658,2.668,2.6699,0,0,0,0,0,0,2.618,2.6188,2.6162,2.6263,2.6287,2.6296,2.6352,2.632,2.6358,2.6348,2.6319,2.6324,2.6416,2.6423,2.6365,2.653,2.646,2.6473,2.6522,2.6543,2.656,2.6557,2.6287,0,0,0,0,0,2.6212,2.6264,2.6268,2.6357,2.637,2.6359,2.6387,2.6368,2.6391,2.64,2.6407,2.6431,2.6479,2.6511,2.6555,2.6666,2.667,2.6718,2.6735,2.6749,2.6762,2.6823,2.6845,2.6607,2.6607,2.6607,0,0,2.6277,2.6287,2.6322,2.6375,2.6391,2.6446,2.6368,2.643,2.6471,2.641,2.6491,2.6497,2.6522,2.6621,2.6665,2.663,2.6828,2.6762,2.6773,2.6778,2.6835,2.6858,2.6878,2.6614,2.6613,2.6612,0,0,2.6424,2.6437,2.6513,2.6531,2.6555,2.6548,2.6566,2.6581,2.6583,2.6664,2.662,2.6668,2.6751,2.6771,2.6792,2.6947,2.6912,2.6962,2.7052,2.7111,2.713,2.7147,2.7204,2.7224,2.6974,2.6975,2.6975,0,2.6502,2.6583,2.6557,2.6622,2.6647,2.6594,2.6672,2.669,2.6728,2.6747,2.6707,2.681,2.6823,2.6927,2.6965,2.6984,2.7005,2.6961,2.7129,2.7146,2.7161,2.7215,2.7236,2.6981,2.698,2.698,2.6979,0,2.6679,2.6736,2.6795,2.6834,2.6865,2.6936,2.6921,2.6956,2.6934,2.6931,2.7015,2.7029,2.7075,2.7098,2.7077,2.72,2.7177,2.7134,2.7063,2.719,2.7241,2.7261,2.699,2.6987,2.6986,2.6984,0,0,2.6884,2.6907,2.6929,2.6946,2.697,2.7014,2.7083,2.7128,2.716,2.7187,2.7246,2.7317,2.7277,2.7301,2.7282,2.7334,2.7458,2.7284,2.7284,2.7318,2.7596,2.763,2.7654,2.7434,2.7438,2.7441,2.7594,0,2.7032,2.7152,2.713,2.7246,2.73,2.725,2.731,2.7331,2.733,2.7376,2.7374,2.7426,2.7368,2.7383,2.7432,2.7433,2.7514,2.7421,2.7489,2.7492,2.7486,2.768,2.7716,2.786,2.7614,2.7617,2.762,0,2.7221,2.7257,2.7379,2.7395,2.7416,2.7471,2.7511,2.7555,2.7578,2.7573,2.7601,2.7572,2.7641,2.7569,2.7665,2.7602,2.7629,2.7633,2.7638,2.7645,2.7565,2.7694,2.7905,2.7928,2.765,2.7648,2.7645,0,2.7361,2.7439,2.7522,2.7538,2.7558,2.7598,2.7609,2.7628,2.7657,2.7692,2.771,2.7753,2.7777,2.7811,2.7795,2.7743,2.7895,2.782,2.7894,2.7895,2.793,2.7928,2.815,2.7944,2.7944,2.7943,2.7943,0,2.753,2.7607,2.7586,2.7637,2.7722,2.7696,2.7781,2.7786,2.7803,2.7855,2.7814,2.7864,2.7838,2.7887,2.7874,2.7957,2.7967,2.7966,2.7963,2.7971,2.7972,2.7989,2.798,2.7949,2.7948,2.7947,2.7946,0,2.7702,2.769,2.7778,2.7789,2.7794,2.7857,2.7867,2.7915,2.7911,2.7977,2.7991,2.7984,2.8039,2.8026,2.8085,2.8077,2.8181,2.8164,2.8174,2.817,2.8245,2.8239,2.8488,2.852,2.8292,2.8294,2.8296,0,2.7811,2.7869,2.7887,2.7919,2.7933,2.7984,2.8013,2.799,2.8022,2.8054,2.8099,2.8149,2.8189,2.8279,2.8279,2.8325,2.8309,2.8393,2.8316,2.8323,2.8313,2.831,2.8317,2.841,2.8412,2.8414,2.8416,0,2.8007,2.7999,2.8042,2.8085,2.8121,2.8153,2.8181,2.821,2.8189,2.8227,2.8282,2.8313,2.8374,2.8426,2.8467,2.8478,2.8445,2.844,2.846,2.847,2.8474,2.8475,2.8218,2.8435,2.8433,2.8432,2.8431,2.843,2.8152,2.8202,2.8223,2.8273,2.8292,2.832,2.8366,2.8367,2.8413,2.8461,2.8444,2.8507,2.853,2.8583,2.8599,2.8648,2.8617,2.8645,2.8653,2.8661,2.8671,2.8465,2.8656,2.8655,2.8655,2.8654,2.8654,0,2.8348,2.8359,2.8405,2.8447,2.8487,2.845,2.8479,2.8516,2.8572,2.8595,2.8635,2.8699,2.8749,2.8754,2.8801,2.884,2.8826,2.8853,2.8851,2.8854,2.8695,2.8674,2.8864,2.8864,2.8864,2.8864,2.8864,2.8864,2.8455,2.8538,2.8532,2.8624,2.8634,2.8696,2.8716,2.8742,2.876,2.8834,2.8875,2.8877,2.8893,2.8941,2.8986,2.8986,2.9006,2.904,2.9034,2.8886,2.8865,2.8845,2.8826,2.9044,2.9044,2.9189,2.9191,2.9192]},{"header":{"parameterUnit":"m.s-1","parameterCategory":1,"la1":30.2991,"la2":30.254,"lo1":-89.0895,"lo2":-89.0444,"dy":0.0017,"dx":0.0017,"nx":28,"ny":28,"refTime":"2025-08-15T03:00:00:Z","depth":0,"parameterNumber":3,"parameterNumberName":"V-component_of_WINDS"},"data":[0,0,0,0,0,0,0,0,0,0,0,0,0,0,0,0,0,0,0,0,0,0,0,0,0,0,0,0,0,0,0,0,0,0,0,0,0,0,0,0,0,0,0,0,0,0,0,0,0,0,0,0,0,0,0,0,0,0,-1.3472,-1.3472,0,-1.3507,-1.3507,-1.3508,-1.3505,-1.3504,-1.3504,-1.3503,-1.3536,-1.3538,-1.3539,0,0,0,0,0,0,0,0,0,0,0,0,0,-1.3402,-1.3403,-1.3472,-1.3472,-1.3473,-1.3507,-1.3507,-1.3508,-1.3505,-1.3504,-1.3504,-1.3503,-1.3536,-1.3538,-1.3539,0,0,0,0,0,0,0,0,0,0,0,0,0,-1.3434,-1.3403,-1.3472,-1.3476,-1.3476,-1.3507,-1.3507,-1.3508,-1.3505,-1.3504,-1.3504,-1.3503,-1.3535,-1.3537,-1.3539,-1.3568,0,0,-1.3546,-1.3547,0,0,0,0,0,0,0,0,-1.3432,-1.3436,-1.3475,-1.3475,-1.3476,-1.3501,-1.3495,-1.3528,-1.3505,-1.3494,-1.3503,-1.3502,-1.3525,-1.3528,-1.3536,-1.3569,-1.3571,-1.3546,-1.3547,-1.3548,-1.3549,0,0,0,0,0,0,0,-1.343,-1.3435,-1.3486,-1.3475,-1.3476,-1.3475,-1.3479,-1.3501,-1.3513,-1.3495,-1.3495,-1.3499,-1.3525,-1.3534,-1.3537,-1.3571,-1.3546,-1.3548,-1.3549,-1.355,-1.363,-1.3631,0,0,0,0,0,0,-1.3427,-1.3433,-1.3485,-1.3487,-1.3452,-1.3477,-1.3481,-1.3494,-1.3513,-1.3515,-1.35,-1.3499,-1.3531,-1.3534,-1.3538,-1.3573,-1.3548,-1.355,-1.3551,-1.3629,-1.363,-1.3631,0,0,0,0,0,0,-1.3426,-1.3432,-1.3483,-1.346,-1.3466,-1.3479,-1.3493,-1.3495,-1.3504,-1.3517,-1.3519,-1.3507,-1.353,-1.3535,-1.3561,-1.3574,-1.3551,-1.3553,-1.3628,-1.3629,-1.3631,-1.3642,0,0,0,0,0,0,-1.3424,-1.3431,-1.3442,-1.346,-1.3468,-1.3506,-1.3494,-1.3496,-1.3507,-1.3507,-1.3524,-1.3526,-1.353,-1.3558,-1.3563,-1.3576,-1.3554,-1.3627,-1.3629,-1.363,-1.364,-1.3644,-1.3646,0,0,0,0,0,-1.3421,-1.3443,-1.3443,-1.3449,-1.3482,-1.3507,-1.3511,-1.3516,-1.3508,-1.352,-1.3528,-1.3525,-1.3572,-1.356,-1.3566,-1.358,-1.3626,-1.3628,-1.363,-1.3639,-1.3643,-1.3646,0,0,0,0,0,0,-1.3425,-1.3446,-1.3445,-1.3474,-1.3489,-1.3506,-1.352,-1.352,-1.3536,-1.3535,-1.354,-1.3544,-1.357,-1.3577,-1.3564,-1.3609,-1.3598,-1.3601,-1.3603,-1.3606,-1.3609,-1.3606,-1.3556,0,0,0,0,0,-1.343,-1.3449,-1.3465,-1.3489,-1.3497,-1.3507,-1.3518,-1.3521,-1.3536,-1.3542,-1.3552,-1.3567,-1.3584,-1.3596,-1.3613,-1.3642,-1.3646,-1.3655,-1.3657,-1.366,-1.3662,-1.3679,-1.3683,-1.3638,-1.3638,-1.3638,0,0,-1.3438,-1.3452,-1.3463,-1.349,-1.3502,-1.3521,-1.3512,-1.3532,-1.3547,-1.3545,-1.357,-1.3578,-1.3594,-1.3622,-1.3635,-1.3629,-1.3676,-1.3662,-1.3664,-1.3665,-1.3681,-1.3685,-1.3689,-1.3639,-1.3639,-1.3639,0,0,-1.3465,-1.3477,-1.3498,-1.3511,-1.3529,-1.3536,-1.3542,-1.3559,-1.3565,-1.3591,-1.359,-1.3607,-1.3637,-1.3649,-1.3659,-1.3691,-1.3689,-1.3697,-1.3711,-1.3727,-1.3731,-1.3734,-1.3746,-1.375,-1.3699,-1.3699,-1.3699,0,-1.3473,-1.3502,-1.3509,-1.353,-1.3542,-1.3543,-1.3565,-1.3576,-1.3598,-1.3606,-1.3601,-1.364,-1.3651,-1.3681,-1.3689,-1.3697,-1.3703,-1.3694,-1.373,-1.3733,-1.3736,-1.3747,-1.3752,-1.37,-1.37,-1.37,-1.37,0,-1.3512,-1.3533,-1.3548,-1.3571,-1.3585,-1.3606,-1.3616,-1.3628,-1.3631,-1.3639,-1.3665,-1.3678,-1.3698,-1.3706,-1.3708,-1.3737,-1.3734,-1.3729,-1.3717,-1.3741,-1.3752,-1.3756,-1.3701,-1.3701,-1.3701,-1.3701,0,0,-1.354,-1.3568,-1.3574,-1.3585,-1.3606,-1.3621,-1.3643,-1.3664,-1.3675,-1.3691,-1.3709,-1.3735,-1.3732,-1.3743,-1.3746,-1.376,-1.3786,-1.3754,-1.3754,-1.3759,-1.3819,-1.3822,-1.3827,-1.3785,-1.3786,-1.3786,-1.3818,0,-1.3568,-1.3607,-1.3615,-1.3648,-1.3668,-1.3669,-1.3688,-1.3703,-1.3711,-1.3728,-1.3737,-1.3756,-1.3749,-1.3756,-1.377,-1.378,-1.3798,-1.3777,-1.3801,-1.3802,-1.3797,-1.3833,-1.3836,-1.3865,-1.3822,-1.3823,-1.3823,0,-1.3606,-1.3624,-1.366,-1.368,-1.3688,-1.3705,-1.3725,-1.3742,-1.3759,-1.3764,-1.3777,-1.378,-1.3802,-1.379,-1.3821,-1.3807,-1.3817,-1.3824,-1.3825,-1.3827,-1.3813,-1.3835,-1.3874,-1.3879,-1.383,-1.3829,-1.3829,0,-1.3623,-1.3657,-1.3683,-1.3692,-1.3716,-1.3727,-1.3738,-1.3754,-1.3766,-1.3784,-1.3792,-1.3812,-1.3822,-1.3837,-1.3845,-1.3836,-1.3875,-1.3864,-1.3879,-1.3879,-1.3887,-1.3886,-1.3928,-1.3894,-1.3894,-1.3894,-1.3894,0,-1.3653,-1.3675,-1.3691,-1.3707,-1.3732,-1.374,-1.3764,-1.3774,-1.3789,-1.3807,-1.3809,-1.3825,-1.3835,-1.3852,-1.3858,-1.3883,-1.3888,-1.3892,-1.3893,-1.3892,-1.3891,-1.3898,-1.3896,-1.3895,-1.3895,-1.3895,-1.3895,0,-1.3676,-1.3688,-1.3716,-1.3737,-1.3743,-1.376,-1.3777,-1.3793,-1.3801,-1.3824,-1.383,-1.3843,-1.3864,-1.3874,-1.3899,-1.3903,-1.3931,-1.3931,-1.3926,-1.3926,-1.3941,-1.394,-1.3988,-1.3995,-1.3957,-1.3958,-1.3958,0,-1.3695,-1.3712,-1.3735,-1.3747,-1.3758,-1.3778,-1.3792,-1.3801,-1.3814,-1.3836,-1.3849,-1.387,-1.3888,-1.3922,-1.3933,-1.3953,-1.3953,-1.3969,-1.3956,-1.3955,-1.3954,-1.3953,-1.3954,-1.3971,-1.3972,-1.3972,-1.3972,0,-1.3726,-1.3731,-1.3751,-1.3773,-1.3789,-1.3806,-1.3823,-1.3833,-1.3845,-1.386,-1.3882,-1.3896,-1.3923,-1.3945,-1.3965,-1.3975,-1.3976,-1.3976,-1.3981,-1.3979,-1.3976,-1.3978,-1.3932,-1.3975,-1.3975,-1.3975,-1.3974,-1.3974,-1.3747,-1.3763,-1.3782,-1.3804,-1.3818,-1.3834,-1.385,-1.3861,-1.3881,-1.3904,-1.3908,-1.3932,-1.3949,-1.3978,-1.3989,-1.4007,-1.4003,-1.401,-1.4012,-1.4013,-1.4014,-1.3973,-1.4011,-1.4011,-1.4011,-1.4011,-1.4011,0,-1.3779,-1.3792,-1.3812,-1.3836,-1.3853,-1.3854,-1.3873,-1.3887,-1.3908,-1.3925,-1.3943,-1.3969,-1.399,-1.4004,-1.4025,-1.4038,-1.4038,-1.4043,-1.4042,-1.4044,-1.4016,-1.401,-1.4042,-1.4042,-1.4042,-1.4042,-1.4042,-1.4042,-1.3798,-1.3824,-1.3832,-1.3866,-1.3878,-1.3903,-1.3914,-1.3928,-1.3942,-1.3971,-1.3989,-1.3999,-1.4014,-1.4037,-1.4057,-1.406,-1.4068,-1.4072,-1.4076,-1.4049,-1.4046,-1.4043,-1.4037,-1.4074,-1.4074,-1.4102,-1.4102,-1.4103]}]]